LOG93Y EGAE-EGLL

Flight info

Callsign LOG93Y
Flight time 1h 6m
Altitude 33000
Route BELZU L10 DUFFY DCT ETIGA DCT INKOB Q39 NOMSU UQ4 WAL UY53 NUGRA
Aircraft E145/M-SABDFGRW/S

Departure

Time 2026-05-07 17:13
Airport City of Derry Airport (EGAE)

Arrival

Time 2026-05-07 18:19
Airport London Heathrow Airport (EGLL)
Time Latitude Longitude Altitude Speed Heading
2026-05-07 16:34 55.04024 -7.15682 12 ft 0 kts 168°
2026-05-07 17:05 55.04023 -7.15682 12 ft 0 kts 172°
2026-05-07 17:06 55.04019 -7.15689 12 ft 1 kts 244°
2026-05-07 17:06 55.04025 -7.15698 12 ft 0 kts 353°
2026-05-07 17:06 55.04038 -7.15700 12 ft 3 kts 358°
2026-05-07 17:06 55.04059 -7.15701 11 ft 3 kts 354°
2026-05-07 17:07 55.04076 -7.15723 11 ft 3 kts 285°
2026-05-07 17:07 55.04074 -7.15780 11 ft 5 kts 262°
2026-05-07 17:07 55.04084 -7.15858 11 ft 8 kts 311°
2026-05-07 17:07 55.04147 -7.15897 10 ft 11 kts 347°
2026-05-07 17:08 55.04192 -7.15915 9 ft 0 kts 347°
2026-05-07 17:10 55.04196 -7.15917 9 ft 3 kts 347°
2026-05-07 17:10 55.04291 -7.15934 7 ft 23 kts 24°
2026-05-07 17:11 55.04358 -7.15661 6 ft 26 kts 70°
2026-05-07 17:11 55.04423 -7.15315 6 ft 26 kts 69°
2026-05-07 17:11 55.04475 -7.15013 6 ft 26 kts 72°
2026-05-07 17:11 55.04528 -7.14798 6 ft 17 kts 67°
2026-05-07 17:12 55.04522 -7.14762 6 ft 0 kts 231°
2026-05-07 17:12 55.04471 -7.15014 6 ft 60 kts 254°
2026-05-07 17:12 55.04271 -7.16122 14 ft 126 kts 251°
2026-05-07 17:12 55.04050 -7.17658 405 ft 136 kts 255°
2026-05-07 17:13 55.03811 -7.19352 686 ft 158 kts 254°
2026-05-07 17:13 55.03521 -7.21293 1302 ft 169 kts 254°
2026-05-07 17:13 55.03236 -7.23159 2420 ft 157 kts 254°
2026-05-07 17:13 55.02941 -7.25063 2894 ft 186 kts 254°
2026-05-07 17:14 55.02578 -7.27423 3467 ft 210 kts 253°
2026-05-07 17:14 55.01881 -7.29532 4492 ft 208 kts 220°
2026-05-07 17:14 55.00547 -7.30558 4951 ft 230 kts 189°
2026-05-07 17:14 54.98910 -7.29992 5386 ft 256 kts 154°
2026-05-07 17:15 54.97660 -7.27781 6241 ft 265 kts 122°
2026-05-07 17:15 54.97233 -7.24690 7052 ft 273 kts 94°
2026-05-07 17:15 54.97259 -7.21373 7839 ft 275 kts 95°
2026-05-07 17:15 54.96813 -7.18217 8547 ft 272 kts 118°
2026-05-07 17:16 54.95981 -7.15269 9294 ft 274 kts 121°
2026-05-07 17:16 54.95080 -7.12356 10052 ft 276 kts 122°
2026-05-07 17:16 54.94162 -7.09457 10641 ft 284 kts 123°
2026-05-07 17:16 54.93175 -7.06359 11097 ft 297 kts 123°
2026-05-07 17:17 54.92164 -7.03191 11565 ft 307 kts 123°
2026-05-07 17:17 54.91122 -6.99935 12002 ft 318 kts 123°
2026-05-07 17:17 54.90028 -6.96519 12525 ft 326 kts 123°
2026-05-07 17:17 54.88919 -6.93058 13142 ft 329 kts 123°
2026-05-07 17:18 54.87806 -6.89591 13749 ft 332 kts 123°
2026-05-07 17:18 54.86684 -6.86105 14334 ft 336 kts 123°
2026-05-07 17:18 54.85548 -6.82574 14956 ft 338 kts 123°
2026-05-07 17:18 54.84392 -6.78994 15576 ft 340 kts 123°
2026-05-07 17:19 54.83238 -6.75418 16170 ft 343 kts 123°
2026-05-07 17:19 54.82077 -6.71831 16747 ft 345 kts 123°
2026-05-07 17:19 54.80902 -6.68205 17296 ft 348 kts 123°
2026-05-07 17:19 54.79718 -6.64554 17853 ft 350 kts 123°
2026-05-07 17:20 54.78526 -6.60886 18470 ft 350 kts 123°
2026-05-07 17:20 54.77345 -6.57256 19120 ft 349 kts 123°
2026-05-07 17:20 54.76163 -6.53631 19722 ft 349 kts 123°
2026-05-07 17:20 54.74968 -6.49969 20340 ft 348 kts 123°
2026-05-07 17:21 54.73785 -6.46355 20947 ft 347 kts 123°
2026-05-07 17:21 54.72595 -6.42722 21555 ft 346 kts 123°
2026-05-07 17:21 54.71418 -6.39132 22146 ft 346 kts 124°
2026-05-07 17:21 54.70246 -6.35567 22730 ft 344 kts 124°
2026-05-07 17:22 54.69063 -6.31968 23318 ft 344 kts 125°
2026-05-07 17:22 54.67885 -6.28392 23925 ft 342 kts 125°
2026-05-07 17:22 54.66721 -6.24863 24528 ft 341 kts 125°
2026-05-07 17:22 54.65494 -6.21433 25137 ft 337 kts 130°
2026-05-07 17:23 54.64177 -6.18100 25773 ft 334 kts 129°
2026-05-07 17:23 54.62885 -6.14823 26338 ft 333 kts 129°
2026-05-07 17:23 54.61592 -6.11547 26908 ft 332 kts 129°
2026-05-07 17:23 54.60291 -6.08257 27494 ft 330 kts 129°
2026-05-07 17:24 54.59008 -6.05015 28063 ft 328 kts 129°
2026-05-07 17:24 54.57733 -6.01798 28606 ft 327 kts 129°
2026-05-07 17:24 54.56455 -5.98578 29164 ft 325 kts 129°
2026-05-07 17:24 54.55154 -5.95305 29720 ft 324 kts 129°
2026-05-07 17:25 54.53893 -5.92136 30240 ft 323 kts 129°
2026-05-07 17:25 54.52595 -5.88877 30765 ft 322 kts 129°
2026-05-07 17:25 54.51317 -5.85662 31284 ft 320 kts 128°
2026-05-07 17:25 54.49989 -5.82482 31773 ft 316 kts 133°
2026-05-07 17:26 54.48612 -5.79374 32230 ft 316 kts 131°
2026-05-07 17:26 54.47280 -5.76322 32698 ft 315 kts 131°
2026-05-07 17:26 54.45926 -5.73206 32908 ft 323 kts 131°
2026-05-07 17:26 54.44559 -5.70056 32922 ft 335 kts 131°
2026-05-07 17:27 54.41686 -5.63438 32923 ft 356 kts 130°
2026-05-07 17:27 54.40179 -5.59970 32927 ft 368 kts 130°
2026-05-07 17:27 54.38635 -5.56423 32932 ft 379 kts 130°
2026-05-07 17:28 54.37033 -5.52747 32935 ft 390 kts 130°
2026-05-07 17:28 54.35378 -5.48957 32932 ft 401 kts 130°
2026-05-07 17:28 54.31955 -5.41133 32930 ft 420 kts 130°
2026-05-07 17:29 54.28410 -5.33056 32933 ft 430 kts 130°
2026-05-07 17:29 54.24791 -5.24838 32932 ft 435 kts 130°
2026-05-07 17:30 54.21167 -5.16639 32937 ft 438 kts 130°
2026-05-07 17:30 54.17488 -5.08340 32940 ft 439 kts 130°
2026-05-07 17:31 54.13828 -5.00109 32939 ft 432 kts 130°
2026-05-07 17:31 54.10213 -4.92010 32947 ft 426 kts 130°
2026-05-07 17:32 54.06667 -4.84090 32950 ft 421 kts 130°
2026-05-07 17:32 54.03170 -4.76231 32951 ft 416 kts 130°
2026-05-07 17:33 53.99682 -4.68433 32955 ft 413 kts 130°
2026-05-07 17:33 53.96228 -4.60702 32957 ft 411 kts 130°
2026-05-07 17:34 53.92795 -4.53040 32958 ft 410 kts 130°
2026-05-07 17:34 53.89347 -4.45367 32961 ft 411 kts 130°
2026-05-07 17:35 53.85862 -4.37672 32961 ft 415 kts 128°
2026-05-07 17:35 53.82647 -4.29510 32964 ft 419 kts 127°
2026-05-07 17:36 53.79344 -4.21408 32966 ft 422 kts 128°
2026-05-07 17:36 53.76001 -4.13269 32967 ft 423 kts 128°
2026-05-07 17:37 53.72646 -4.05132 32966 ft 423 kts 128°
2026-05-07 17:37 53.69301 -3.97047 32964 ft 423 kts 128°
2026-05-07 17:38 53.65923 -3.88914 32967 ft 424 kts 128°
2026-05-07 17:38 53.62529 -3.80771 32966 ft 424 kts 128°
2026-05-07 17:39 53.59134 -3.72651 32958 ft 425 kts 127°
2026-05-07 17:39 53.55729 -3.64533 32958 ft 426 kts 127°
2026-05-07 17:40 53.52299 -3.56383 32960 ft 425 kts 127°
2026-05-07 17:40 53.48892 -3.48314 32962 ft 424 kts 127°
2026-05-07 17:41 53.45861 -3.39866 32961 ft 426 kts 115°
2026-05-07 17:41 53.43611 -3.30778 32967 ft 424 kts 116°
2026-05-07 17:42 53.41286 -3.21640 32971 ft 423 kts 116°
2026-05-07 17:42 53.38794 -3.12686 32977 ft 419 kts 124°
2026-05-07 17:43 53.35375 -3.04849 32982 ft 417 kts 129°
2026-05-07 17:43 53.31943 -2.97152 32981 ft 416 kts 129°
2026-05-07 17:44 53.28477 -2.89393 32987 ft 416 kts 129°
2026-05-07 17:44 53.25044 -2.81732 32990 ft 415 kts 129°
2026-05-07 17:45 53.21571 -2.74004 32990 ft 415 kts 129°
2026-05-07 17:45 53.18107 -2.66321 32994 ft 415 kts 128°
2026-05-07 17:46 53.14643 -2.58684 32996 ft 416 kts 128°
2026-05-07 17:46 53.11301 -2.50747 32996 ft 418 kts 126°
2026-05-07 17:47 53.08057 -2.42803 32995 ft 419 kts 126°
2026-05-07 17:47 53.04765 -2.34795 32998 ft 420 kts 127°
2026-05-07 17:48 53.00690 -2.27943 33000 ft 417 kts 146°
2026-05-07 17:48 52.95813 -2.22859 32995 ft 417 kts 149°
2026-05-07 17:49 52.90889 -2.17715 33000 ft 418 kts 149°
2026-05-07 17:49 52.85989 -2.12596 32999 ft 419 kts 149°
2026-05-07 17:50 52.81062 -2.07463 33005 ft 420 kts 149°
2026-05-07 17:50 52.78577 -2.04879 32894 ft 424 kts 149°
2026-05-07 17:50 52.76123 -2.02330 32367 ft 419 kts 149°
2026-05-07 17:51 52.73654 -1.99770 31848 ft 414 kts 149°
2026-05-07 17:51 52.71208 -1.97236 31337 ft 421 kts 149°
2026-05-07 17:51 52.68755 -1.94699 30828 ft 419 kts 149°
2026-05-07 17:51 52.66283 -1.92145 30296 ft 422 kts 149°
2026-05-07 17:52 52.63791 -1.89576 29770 ft 429 kts 149°
2026-05-07 17:52 52.61281 -1.86990 29245 ft 430 kts 149°
2026-05-07 17:52 52.58736 -1.84373 28712 ft 428 kts 149°
2026-05-07 17:52 52.56244 -1.81812 28184 ft 427 kts 150°
2026-05-07 17:53 52.53714 -1.79218 27649 ft 427 kts 150°
2026-05-07 17:53 52.51215 -1.76657 27113 ft 416 kts 150°
2026-05-07 17:53 52.48817 -1.74202 26570 ft 401 kts 150°
2026-05-07 17:53 52.46495 -1.71830 26065 ft 386 kts 150°
2026-05-07 17:54 52.44285 -1.69574 25573 ft 374 kts 150°
2026-05-07 17:54 52.42087 -1.67334 25013 ft 364 kts 150°
2026-05-07 17:54 52.39977 -1.65185 24472 ft 356 kts 150°
2026-05-07 17:54 52.37905 -1.63080 23928 ft 350 kts 150°
2026-05-07 17:55 52.35866 -1.61009 23391 ft 346 kts 150°
2026-05-07 17:55 52.33819 -1.58932 22863 ft 344 kts 150°
2026-05-07 17:55 52.31800 -1.56886 22333 ft 342 kts 150°
2026-05-07 17:55 52.29785 -1.54846 21806 ft 340 kts 150°
2026-05-07 17:56 52.27792 -1.52830 21280 ft 339 kts 150°
2026-05-07 17:56 52.25809 -1.50827 20770 ft 337 kts 150°
2026-05-07 17:56 52.23812 -1.48811 20248 ft 334 kts 150°
2026-05-07 17:56 52.21867 -1.46830 19730 ft 332 kts 147°
2026-05-07 17:57 52.20138 -1.44494 19802 ft 308 kts 141°
2026-05-07 17:57 52.19104 -1.43052 19943 ft 291 kts 141°
2026-05-07 17:57 52.17141 -1.40311 20047 ft 265 kts 142°
2026-05-07 17:57 52.15738 -1.38364 19396 ft 281 kts 142°
2026-05-07 17:58 52.14206 -1.36266 18680 ft 296 kts 142°
2026-05-07 17:58 52.12609 -1.34063 18167 ft 303 kts 141°
2026-05-07 17:58 52.11033 -1.31831 17675 ft 308 kts 141°
2026-05-07 17:58 52.09387 -1.29528 17149 ft 313 kts 142°
2026-05-07 17:59 52.07740 -1.27234 16644 ft 316 kts 141°
2026-05-07 17:59 52.06076 -1.24920 16142 ft 318 kts 141°
2026-05-07 17:59 52.04405 -1.22603 15615 ft 319 kts 141°
2026-05-07 17:59 52.02709 -1.20253 15081 ft 318 kts 141°
2026-05-07 18:00 52.01044 -1.17949 14597 ft 317 kts 141°
2026-05-07 18:00 51.99385 -1.15654 14057 ft 316 kts 141°
2026-05-07 18:00 51.97711 -1.13343 13549 ft 311 kts 141°
2026-05-07 18:00 51.96090 -1.11105 13077 ft 306 kts 141°
2026-05-07 18:01 51.94494 -1.08905 12545 ft 301 kts 141°
2026-05-07 18:01 51.92921 -1.06738 12030 ft 296 kts 141°
2026-05-07 18:01 51.91375 -1.04610 11542 ft 292 kts 141°
2026-05-07 18:01 51.89828 -1.02482 11105 ft 287 kts 141°
2026-05-07 18:02 51.86868 -0.98416 10396 ft 274 kts 141°
2026-05-07 18:02 51.85447 -0.96344 10097 ft 275 kts 131°
2026-05-07 18:02 51.84503 -0.93683 9854 ft 273 kts 116°
2026-05-07 18:03 51.83684 -0.90980 9597 ft 262 kts 117°
2026-05-07 18:03 51.82885 -0.88361 9337 ft 258 kts 117°
2026-05-07 18:03 51.82104 -0.85805 9117 ft 252 kts 117°
2026-05-07 18:03 51.81345 -0.83323 9009 ft 247 kts 117°
2026-05-07 18:04 51.80574 -0.80809 9021 ft 249 kts 117°
2026-05-07 18:04 51.79810 -0.78315 9053 ft 247 kts 117°
2026-05-07 18:04 51.79042 -0.75817 8925 ft 252 kts 117°
2026-05-07 18:04 51.78265 -0.73288 8655 ft 250 kts 117°
2026-05-07 18:05 51.77497 -0.70793 8375 ft 247 kts 117°
2026-05-07 18:05 51.76732 -0.68304 8117 ft 247 kts 117°
2026-05-07 18:05 51.75972 -0.65840 8063 ft 246 kts 117°
2026-05-07 18:05 51.75214 -0.63381 8016 ft 245 kts 117°
2026-05-07 18:06 51.74459 -0.60936 8024 ft 245 kts 117°
2026-05-07 18:06 51.73686 -0.58439 8036 ft 249 kts 117°
2026-05-07 18:06 51.72737 -0.56153 8027 ft 244 kts 140°
2026-05-07 18:06 51.71234 -0.55045 8049 ft 239 kts 174°
2026-05-07 18:07 51.69575 -0.54979 8037 ft 241 kts 180°
2026-05-07 18:07 51.67947 -0.55518 8032 ft 242 kts 209°
2026-05-07 18:07 51.66755 -0.57414 8055 ft 247 kts 241°
2026-05-07 18:07 51.66020 -0.59956 8040 ft 257 kts 245°
2026-05-07 18:08 51.65284 -0.62605 8035 ft 264 kts 245°
2026-05-07 18:08 51.64511 -0.65371 8033 ft 271 kts 245°
2026-05-07 18:08 51.63744 -0.68103 7975 ft 256 kts 245°
2026-05-07 18:08 51.63045 -0.70575 8047 ft 240 kts 245°
2026-05-07 18:09 51.62350 -0.73037 7877 ft 245 kts 246°
2026-05-07 18:09 51.61650 -0.75497 7624 ft 242 kts 246°
2026-05-07 18:09 51.60951 -0.77928 7371 ft 239 kts 246°
2026-05-07 18:09 51.60262 -0.80319 7115 ft 236 kts 245°
2026-05-07 18:10 51.59578 -0.82692 6864 ft 234 kts 246°
2026-05-07 18:10 51.58892 -0.85051 6610 ft 233 kts 246°
2026-05-07 18:10 51.58202 -0.87397 6359 ft 233 kts 246°
2026-05-07 18:10 51.57509 -0.89745 6105 ft 230 kts 246°
2026-05-07 18:11 51.56838 -0.92050 5837 ft 226 kts 246°
2026-05-07 18:11 51.56403 -0.93556 5633 ft 218 kts 245°
2026-05-07 18:11 51.55099 -0.95763 5340 ft 208 kts 199°
2026-05-07 18:11 51.53685 -0.96051 5120 ft 206 kts 181°
2026-05-07 18:12 51.52252 -0.96110 4875 ft 207 kts 181°
2026-05-07 18:12 51.50842 -0.95827 4621 ft 205 kts 153°
2026-05-07 18:12 51.49833 -0.94303 4404 ft 200 kts 122°
2026-05-07 18:12 51.49114 -0.92426 4222 ft 194 kts 121°
2026-05-07 18:13 51.48426 -0.90602 3996 ft 188 kts 121°
2026-05-07 18:13 51.47781 -0.88886 3958 ft 172 kts 118°
2026-05-07 18:13 51.47572 -0.87107 3964 ft 158 kts 89°
2026-05-07 18:13 51.47578 -0.85297 3983 ft 164 kts 90°
2026-05-07 18:14 51.47583 -0.83462 3973 ft 165 kts 90°
2026-05-07 18:14 51.47591 -0.81626 3973 ft 165 kts 90°
2026-05-07 18:14 51.47600 -0.79750 3882 ft 174 kts 90°
2026-05-07 18:14 51.47611 -0.77826 3683 ft 172 kts 90°
2026-05-07 18:15 51.47622 -0.75924 3467 ft 169 kts 90°
2026-05-07 18:15 51.47630 -0.74058 3247 ft 167 kts 91°
2026-05-07 18:15 51.47641 -0.72205 3022 ft 166 kts 90°
2026-05-07 18:15 51.47653 -0.70374 2780 ft 164 kts 91°
2026-05-07 18:16 51.47663 -0.68576 2576 ft 160 kts 91°
2026-05-07 18:16 51.47671 -0.66794 2357 ft 159 kts 91°
2026-05-07 18:16 51.47678 -0.65027 2138 ft 159 kts 91°
2026-05-07 18:16 51.47690 -0.63261 1920 ft 158 kts 91°
2026-05-07 18:17 51.47697 -0.61518 1709 ft 156 kts 91°
2026-05-07 18:17 51.47704 -0.59896 1506 ft 136 kts 91°
2026-05-07 18:17 51.47710 -0.58424 1322 ft 130 kts 92°
2026-05-07 18:17 51.47716 -0.56984 1148 ft 129 kts 92°
2026-05-07 18:18 51.47724 -0.55559 980 ft 132 kts 92°
2026-05-07 18:18 51.47731 -0.54096 800 ft 129 kts 92°
2026-05-07 18:18 51.47737 -0.52658 625 ft 128 kts 92°
2026-05-07 18:18 51.47742 -0.51239 456 ft 127 kts 92°
2026-05-07 18:19 51.47746 -0.49806 286 ft 132 kts 92°
2026-05-07 18:19 51.47754 -0.48331 130 ft 131 kts 92°
2026-05-07 18:19 51.47758 -0.46934 84 ft 110 kts 92°
2026-05-07 18:19 51.47734 -0.46203 80 ft 27 kts 131°
2026-05-07 18:20 51.47627 -0.46065 80 ft 9 kts 146°